Location: Unspecified
(45.3999°N, 88.1269°W)
Time: 15:46:59

CZ-3 Stage 3 - Visible Passes

Search period start: 23 March 2018 00:00
Search period end: 02 April 2018 00:00
Orbit: 439 x 34757 km, 31.0° (Epoch: 22 March)

Date Brightness Start Highest point End Pass type
(mag) Time Alt. Az. Time Alt. Az. Time Alt. Az.
24 Mar 7.7 05:38:59 10° SSE 10:21:29 34° SSE 10:46:51 10° ESE visible
27 Mar 7.7 05:22:17 10° SSE 10:12:06 35° SSE 10:37:37 10° ESE visible
30 Mar 7.8 05:05:46 10° SSE 10:02:42 36° SSE 10:28:21 10° ESE visible
